MED1 YSSY-YSSY

Flight info

Callsign MED1
Flight time 0h 1m
Altitude 1500
Route
Aircraft JET/H-G/C

Departure

Time 2026-04-20 04:46
Airport Sydney Kingsford Smith International Airport (YSSY)

Arrival

Time 2026-04-20 04:47
Airport Sydney Kingsford Smith International Airport (YSSY)
Time Latitude Longitude Altitude Speed Heading
2026-04-20 04:43 -33.85779 151.21519 34 ft 0 kts 232°
2026-04-20 04:45 -33.85790 151.21492 56 ft 24 kts 220°
2026-04-20 04:45 -33.85853 151.21224 226 ft 60 kts 237°
2026-04-20 04:46 -33.86042 151.20628 260 ft 86 kts 235°
2026-04-20 04:46 -33.86286 151.19922 391 ft 94 kts 230°
2026-04-20 04:46 -33.86822 151.19512 640 ft 93 kts 185°
2026-04-20 04:46 -33.87158 151.20017 869 ft 101 kts 100°
2026-04-20 04:47 -33.87195 151.21021 656 ft 128 kts 97°
2026-04-20 04:47 -33.87134 151.22096 725 ft 135 kts 89°
2026-04-20 04:47 -33.86996 151.23084 401 ft 55 kts 115°
2026-04-20 04:47 -33.87205 151.23565 600 ft 48 kts 120°
2026-04-20 04:48 -33.87440 151.23626 660 ft 66 kts 231°
2026-04-20 04:48 -33.87557 151.23083 696 ft 86 kts 263°
2026-04-20 04:48 -33.87444 151.22266 584 ft 109 kts 272°
2026-04-20 04:48 -33.87314 151.21329 508 ft 107 kts 269°
2026-04-20 04:49 -33.87219 151.20482 393 ft 113 kts 270°
2026-04-20 04:49 -33.87101 151.19654 465 ft 85 kts 257°
2026-04-20 04:49 -33.87137 151.18917 492 ft 93 kts 252°
2026-04-20 04:49 -33.87294 151.18159 469 ft 93 kts 244°
2026-04-20 04:50 -33.87544 151.17507 598 ft 87 kts 237°
2026-04-20 04:50 -33.87600 151.16778 652 ft 102 kts 272°
2026-04-20 04:50 -33.87486 151.15888 526 ft 117 kts 272°
2026-04-20 04:50 -33.87163 151.14958 491 ft 123 kts 294°
2026-04-20 04:51 -33.86686 151.14132 537 ft 117 kts 296°
2026-04-20 04:51 -33.86223 151.13358 642 ft 113 kts 298°
2026-04-20 04:51 -33.85776 151.12619 786 ft 103 kts 303°
2026-04-20 04:51 -33.85421 151.12124 458 ft 132 kts 306°
2026-04-20 04:52 -33.84625 151.10981 188 ft 131 kts 301°
2026-04-20 04:52 -33.84062 151.10110 103 ft 125 kts 301°
2026-04-20 04:52 -33.83588 151.09324 64 ft 125 kts 297°
2026-04-20 04:52 -33.83329 151.08765 206 ft 103 kts 285°
2026-04-20 04:53 -33.82993 151.07917 95 ft 113 kts 283°
2026-04-20 04:53 -33.82600 151.07289 413 ft 82 kts 307°
2026-04-20 04:53 -33.82239 151.06748 333 ft 37 kts 175°
2026-04-20 04:53 -33.82120 151.06663 50 ft 21 kts 124°
2026-04-20 04:54 -33.82134 151.06655 36 ft 0 kts 181°
2026-04-20 04:54 -33.82044 151.06475 110 ft 79 kts 291°
2026-04-20 04:54 -33.81943 151.06004 466 ft 59 kts 159°
2026-04-20 04:55 -33.82411 151.06581 255 ft 117 kts 143°
2026-04-20 04:55 -33.82986 151.07267 391 ft 108 kts 139°
2026-04-20 04:55 -33.83432 151.08032 461 ft 109 kts 124°
2026-04-20 04:55 -33.83938 151.08788 237 ft 124 kts 130°
2026-04-20 04:56 -33.83658 151.09172 1315 ft 73 kts 320°
2026-04-20 04:56 -33.83498 151.08666 1865 ft 62 kts 317°
2026-04-20 04:56 -33.83115 151.08198 926 ft 98 kts 311°
2026-04-20 04:56 -33.82663 151.07738 652 ft 92 kts 328°
2026-04-20 04:57 -33.82091 151.07621 555 ft 66 kts 64°
2026-04-20 04:57 -33.82097 151.07701 788 ft 26 kts
2026-04-20 04:57 -33.82042 151.07837 827 ft 68 kts 84°
2026-04-20 04:57 -33.82022 151.08533 1018 ft 104 kts 103°
2026-04-20 04:58 -33.82226 151.09498 809 ft 133 kts 111°
2026-04-20 04:58 -33.82568 151.10611 592 ft 142 kts 115°
2026-04-20 04:58 -33.82908 151.11709 633 ft 142 kts 111°
2026-04-20 04:58 -33.83189 151.12841 659 ft 142 kts 109°
2026-04-20 04:59 -33.83455 151.13952 716 ft 133 kts 112°
2026-04-20 04:59 -33.83727 151.15041 549 ft 144 kts 114°
2026-04-20 04:59 -33.84010 151.16163 643 ft 132 kts 112°
2026-04-20 04:59 -33.84247 151.17276 498 ft 144 kts 111°
2026-04-20 05:00 -33.84459 151.18314 845 ft 113 kts 108°
2026-04-20 05:00 -33.84636 151.19278 861 ft 115 kts 109°
2026-04-20 05:00 -33.84845 151.20150 931 ft 99 kts 115°
2026-04-20 05:00 -33.85132 151.20836 925 ft 87 kts 137°
2026-04-20 05:01 -33.85588 151.21195 686 ft 77 kts 163°
2026-04-20 05:01 -33.86202 151.21351 501 ft 104 kts 176°
2026-04-20 05:01 -33.86959 151.21349 559 ft 113 kts 184°
2026-04-20 05:01 -33.87738 151.21086 586 ft 123 kts 201°
2026-04-20 05:02 -33.88456 151.20518 622 ft 120 kts 213°
2026-04-20 05:02 -33.89038 151.20169 1225 ft 86 kts 190°
2026-04-20 05:02 -33.89544 151.20123 1293 ft 67 kts 187°
2026-04-20 05:02 -33.90048 151.20241 918 ft 79 kts 130°
2026-04-20 05:03 -33.90319 151.20903 582 ft 100 kts 124°
2026-04-20 05:03 -33.90758 151.21521 421 ft 93 kts 153°
2026-04-20 05:03 -33.91297 151.21732 493 ft 75 kts 173°
2026-04-20 05:03 -33.91758 151.21832 561 ft 51 kts 172°
2026-04-20 05:04 -33.92127 151.21851 452 ft 66 kts 188°
2026-04-20 05:04 -33.92562 151.21595 314 ft 75 kts 211°
2026-04-20 05:04 -33.93038 151.21257 136 ft 79 kts 208°
2026-04-20 05:04 -33.93448 151.20893 137 ft 69 kts 226°
2026-04-20 05:05 -33.93608 151.20363 161 ft 66 kts 250°
2026-04-20 05:05 -33.93703 151.19843 190 ft 60 kts 243°
2026-04-20 05:05 -33.93796 151.19445 131 ft 36 kts 243°
2026-04-20 05:05 -33.93843 151.19261 93 ft 21 kts 231°
2026-04-20 05:06 -33.93884 151.19123 35 ft 9 kts 225°
2026-04-20 05:06 -33.93899 151.19092 23 ft 0 kts 213°